Location: Dürabuch
(48.2640°N, 11.2185°E)
Time: 19:24:53
(UTC+00:00)

Cosmos 2360 Rocket - Pass Details

Date: 23 May 2024
Orbit: 832 x 846 km, 71.0° (Epoch: 24 June)

Event Time Altitude Azimuth Distance (km) Brightness Sun altitude
Rises 00:13:37 0° 336° (NNW) 3,415 6.2 -19.7°
Reaches altitude 10° 00:16:25 10° 348° (NNW) 2,478 5.5 -19.6°
Maximum altitude 00:21:18 29° 47° (NE) 1,522 4.1 -19.4°
Drops below altitude 10° 00:26:10 10° 106° (ESE) 2,468 4.6 -19.1°
Sets 00:28:57 0° 118° (ESE) 3,399 5.3 -19.0°
